hit tracker

Jackpot

Texas Poker Multi Jackpot System

Kini Telah hadir Jackpot SUPER ROYAL FLUSH

Kini Telah hadir Jackpot 2000 (khusus table VIP keatas).

Ikutilah global jackpot yang tersedia di system kami, dengan system jackpot terbaru dan pertama di indonesia, anda dapat membeli jackpot dengan harga 100 rupiah saja dan menangkan hadiahnya hingga puluhan juta rupiah.

Jackpot bukanlah suatu keharusan untuk dibeli, namun kami memberikan suatu fitur tambahan untuk member tercinta dari www.qqpokeronline.com.

Terdapat tiga pilihan harga jackpot yang bisa anda beli yaitu :100,500,1000 dan 2000(khusus table VIP Keatas) rupiah.

Hadiah dari Multi jackpot system www.qqpokeronline.com

  1. full house x 10 harga jackpot yang anda beli.
      (contoh:anda membeli 1000 maka:1000 X10 = 10.000)
  2. four of kind x 250 harga jackpot yang anda beli
      (contoh:anda membeli 1000 maka:1000 X250 = 250.000)
  3. Straight flush x 1200
      (contoh:anda membeli 1000 maka:1000 X1200 = 1.200.000)
  4. Royal flush x 10000 harga jackpot yang anda beli
      (contoh:anda membeli 1000 maka:1000 X10000 = 10.000.000)
  5. SUPER ROYAL FLUSH x 30000 harga jackpot yang anda beli
      (contoh:anda membeli 1000 maka:1000 X30000 = 30.000.000)

Kondisi kartu

  1. full house adalah kondisi kartu dimana kartu anda dan kartu tengah dengan total 7 kartu bisa mendapatkan nilai 5 kartu dengan kombinasi 1 tris(three of kind) dan 1 pair, contoh 3 kartu 10 dan 2 kartu 5
  2. Four of kind adalah kondisi kartu dimana kartu anda dan kartu tengah dengan total 7 kartu bisa mendapatkan nilai 5 kartu dengan kombinasi 4 kartu yang sama jumlah dan 1 kartu apapun juga contoh anda mendapatkan 4 buah kartu angka 3 dan 1 kartu apapun.
  3. Staright flush adalah kondisi kartu dimana kartu anda dan kartu tengah dengan total 7 kartu bisa mendapatkan nilai 5 kartu dengan kombinasi seri / staright dengan kembang yang sama contoh : urutan kartu dari angka 5, 6, 7, 8 , 9 10 dengan kembang yg sama misalnya as hati
  4. Royal flush adalah kondisi kartu dimana kartu anda dan kartu tengah dengan total 7 kartu bisa mendapatkan nilai 5 kartu dengan kombinasi seri / staright dengan kembang yang sama tetapi kartu tersebut haruslah dimulai dari 10. contoh 10, Queen, Jack, King dan aces dengan kembang yang sama
  5. Super Royal flush adalah kondisi kartu dimana Kedua kartu anda digabung dengan 3 kartu pertama meja haruslah royal flush. contoh kartu anda 10,Queen kembang sama dan 3 kartu pertama meja adalah Jack, King dan aces dengan kembang yang sama

Demikian adalah penjelasan dari Multi Jackpot www.qqpokeronline.com terima kasih dan selamat bermain salam hoki dari kami

Texas Poker Jackpot Winner

TOP SUPER ROYAL FLUSH
No.TanggalNamaPriceWin
119/08 15:20HERU447Super Royal flush6,000,000
219/08 11:52E049306FSuper Royal flush3,000,000
319/08 02:49RD1515Super Royal flush3,000,000
419/08 01:39BIGBRO303Super Royal flush6,000,000
519/08 01:01CE5FB6B6Super Royal flush3,000,000
TOP ROYAL FLUSH
No.TanggalNamaPriceWin
119/08 17:09QUINDUAK4ORoyal flush5,000,000
219/08 16:52NUNUK12Royal flush2,000,000
319/08 16:16DEKII123Royal flush20,000,000
419/08 15:53MAKENCANGERoyal flush2,000,000
519/08 15:44KHUNCEN12Royal flush5,000,000
TOP STRAIGHT FLUSH
No.TanggalNamaPriceWin
119/08 17:08KRIBOB01Straight Flush120,000
219/08 17:07DESTRINStraight Flush600,000
319/08 17:06GIIEROCKStraight Flush600,000
419/08 17:04AE849FC2Straight Flush120,000
519/08 17:04THITHISStraight Flush600,000
LATEST JACKPOT
No.TanggalNamaPriceWin
119/08 17:11DON1976Full House20,000
219/08 17:10NENGNIZZFull House2,000
319/08 17:10IYOZE81Four Of A Kind25,000
419/08 17:10DENIDARKOFull House5,000
519/08 17:10UCAYYYFull House1,000
619/08 17:10HOKY2708Full House2,000
719/08 17:10MDRPOCANROXYFull House2,000
819/08 17:10ALDIAN0202Full House5,000
919/08 17:10TOKET_36CFull House1,000
1019/08 17:10ALDO16Full House5,000
1119/08 17:10NICEKIDFull House10,000
1219/08 17:10ANTHRAX8Full House1,000
1319/08 17:10BLEKEDE5Full House20,000
1419/08 17:10JOSH888Full House2,000
1519/08 17:10ZHOIZ323Full House2,000
1619/08 17:10C4PS48080Full House5,000
1719/08 17:10DWTRITEFull House5,000
1819/08 17:10OKTOHEYFull House2,000
1919/08 17:10MOBA189Full House1,000
2019/08 17:10CANDI956Full House2,000
2119/08 17:10KIOSHI_66Full House5,000
2219/08 17:10BARGOT71Full House2,000
2319/08 17:10GUYUR63Full House2,000
2419/08 17:10LACKYFull House2,000
2519/08 17:10XBENNOTXFull House20,000
2619/08 17:10SUDUANG73Full House2,000
2719/08 17:10C20065C3Full House10,000
2819/08 17:10USEN505Full House2,000
2919/08 17:10ADN798Full House1,000
3019/08 17:10AD121AJEFull House1,000
3119/08 17:10YUNITHA27Full House1,000
3219/08 17:10MP85Full House1,000
3319/08 17:10GORENG09Full House1,000
3419/08 17:10F7028C45Full House2,000
3519/08 17:10M45U4KFull House2,000
3619/08 17:10ROY4L8Full House2,000
3719/08 17:10HOKKY2120Full House1,000
3819/08 17:10M4NR03Four Of A Kind50,000
3919/08 17:10PIERCE80Full House5,000
4019/08 17:10DB88D155Full House20,000
4119/08 17:10THORRO5IAFFull House5,000
4219/08 17:10PLGKARUNG66Full House5,000
4319/08 17:10T0BL0N6Four Of A Kind125,000
4419/08 17:10SUHIRMAN88Full House2,000
4519/08 17:10REIZA0506Full House20,000
4619/08 17:10EKAAAFull House500
4719/08 17:10PUTRIANE08Full House5,000
4819/08 17:10MORENO86Full House2,000
4919/08 17:10MREZA882Full House5,000
5019/08 17:10T118LISWANFull House2,000

Domino Multi Jackpot System

Ikutilah global jackpot yang tersedia di system kami, dengan system jackpot terbaru dan pertama di indonesia, anda dapat membeli jackpot dengan harga 100 rupiah saja dan menangkan hadiahnya hingga puluhan juta rupiah.

Jackpot bukanlah suatu keharusan untuk dibeli, namun kami memberikan suatu fitur tambahan untuk member tercinta dari www.qqpokeronline.com.

Terdapat tiga pilihan harga jackpot yang bisa anda beli yaitu :100,500 dan 1000 rupiah.

Hadiah dari Multi jackpot system www.qqpokeronline.com

  1. Murni Kecil x 50 harga jackpot yang anda beli.
      (contoh:anda membeli 1000 maka:1000 X 50 = 50.000)
  2. Murni Besar x 50 harga jackpot yang anda beli
      (contoh:anda membeli 1000 maka:1000 X 50 = 50.000)
  3. BALAK x 100 harga jackpot yang anda beli
      (contoh:anda membeli 1000 maka:1000 X 100 = 100.000)
  4. ENAM DEWA x 6666 harga jackpot yang anda beli
      (contoh:anda membeli 1000 maka:1000 X 6666 = 6.666.000)

Demikian adalah penjelasan dari Multi Jackpot www.qqpokeronline.com terima kasih dan selamat bermain salam hoki dari kami

Domino Jackpot Winner

TOP ENAM DEWA
No.TanggalNamaPriceWin
119/08 16:44DWINA87murni enam6,666,000
219/08 16:23ARIQTBKmurni enam6,666,000
319/08 14:31COBADREmurni enam3,333,000
419/08 14:17EGA531murni enam3,333,000
519/08 14:01GAPLEXXXmurni enam6,666,000
TOP BALAK
No.TanggalNamaPriceWin
119/08 17:10KOBELL23balak50,000
219/08 17:04NBOIPHTLO2balak100,000
319/08 17:02KOINBERKAHbalak100,000
419/08 16:59NDASE5678balak10,000
519/08 16:56WARIIIK99balak10,000
LATEST JACKPOT
No.TanggalNamaPriceWin
119/08 17:11A606D827murni besar25,000
219/08 17:10KONYING87murni kecil5,000
319/08 17:10INDRA0101murni besar50,000
419/08 17:10SAPI46murni kecil25,000
519/08 17:10FADEAUMImurni kecil50,000
619/08 17:10KOBELL23balak50,000
719/08 17:09JAMPANGmurni besar25,000
819/08 17:09NI3murni kecil50,000
919/08 17:09COINQQmurni kecil50,000
1019/08 17:08TALANGBAKUmurni kecil50,000
1119/08 17:08ABAY35murni kecil25,000
1219/08 17:08LIDI123lucky992,500
1319/08 17:08KOBULCUSmurni besar50,000
1419/08 17:06MUNGGIL13murni kecil50,000
1519/08 17:06BAYUALFIANmurni besar50,000
1619/08 17:06GODER96murni kecil50,000
1719/08 17:05BGGL8989murni besar50,000
1819/08 17:05TANTRA67murni besar25,000
1919/08 17:04NBOIPHTLO2balak100,000
2019/08 17:04THEDUURSmurni kecil50,000
2119/08 17:03ROIS222murni besar5,000
2219/08 17:02AGO351murni kecil50,000
2319/08 17:02KOINBERKAHbalak100,000
2419/08 17:02P14L4murni kecil50,000
2519/08 17:01PICUENmurni besar50,000
2619/08 17:00ADITSBINGmurni kecil5,000
2719/08 17:00BAROSS99lucky9925,000
2819/08 17:00TEMPUR485murni besar50,000
2919/08 17:00PERNIKmurni kecil50,000
3019/08 16:59RINAINA86murni besar25,000
3119/08 16:59NDASE5678balak10,000
3219/08 16:58LADHANKA08murni kecil50,000
3319/08 16:58ARENA888murni besar25,000
3419/08 16:58JOKUNmurni besar25,000
3519/08 16:57TECANDAKmurni besar50,000
3619/08 16:56GENJER87murni kecil5,000
3719/08 16:56WARIIIK99balak10,000
3819/08 16:56Q6666Qmurni kecil50,000
3919/08 16:55RIKIRICARDmurni kecil25,000
4019/08 16:55KABUD6666murni kecil50,000
4119/08 16:53GENJER87murni kecil5,000
4219/08 16:53NYASAR02murni besar5,000
4319/08 16:52DEPI22murni besar25,000
4419/08 16:52D251BD0Amurni kecil50,000
4519/08 16:52BAYUALFIANmurni kecil50,000
4619/08 16:51BP888063balak100,000
4719/08 16:51G3V3N6murni kecil25,000
4819/08 16:50VENTOLA76murni kecil5,000
4919/08 16:49ZAMAN_NOW1murni besar50,000
5019/08 16:49AMATBOM2murni kecil50,000

Ceme Multi Jackpot System

Jackpot dilihat dari gabungan kartu pemain dengan kartu bandar. Bandar harus membeli jackpot sebanyak jumlah player yang sedang duduk. Sebagai contoh bila terdapat 3 pemain duduk bermain, dan bandar memutuskan untuk membeli jackpot Rp 1.000, maka pada periode tersebut bandar akan membeli jackpot sebanyak 3xRp1.000 = Rp3.000.

Jackpot bukanlah suatu keharusan untuk dibeli, namun kami memberikan suatu fitur tambahan untuk member tercinta dari www.qqpokeronline.com.

Terdapat tiga pilihan harga jackpot yang bisa anda beli yaitu :100,500 dan 1000 rupiah.

Hadiah dari Multi jackpot system www.qqpokeronline.com

  1. Murni Kecil x 50 harga jackpot yang anda beli.
      (contoh:anda membeli 1000 maka:1000 X 50 = 50.000)
  2. Murni Besar x 50 harga jackpot yang anda beli
      (contoh:anda membeli 1000 maka:1000 X 50 = 50.000)
  3. BALAK x 200 harga jackpot yang anda beli
      (contoh:anda membeli 1000 maka:1000 X 200 = 200.000)
  4. ENAM DEWA x 6666 harga jackpot yang anda beli
      (contoh:anda membeli 1000 maka:1000 X 6666 = 6.666.000)

Demikian adalah penjelasan dari Multi Jackpot www.qqpokeronline.com terima kasih dan selamat bermain salam hoki dari kami

Ceme Jackpot Winner

TOP ENAM DEWA
No.TanggalNamaPriceWin
119/08 16:34ALPA72murni enam6,666,000
219/08 16:34JUNETPERmurni enam6,666,000
319/08 16:23BOSSGP01murni enam6,666,000
419/08 16:23SINAKmurni enam6,666,000
519/08 15:58ANDAPUT58murni enam6,666,000
TOP BALAK
No.TanggalNamaPriceWin
119/08 17:10API01balak200,000
219/08 17:10JERUK7777balak100,000
319/08 17:10BAPER10balak100,000
419/08 17:09PUT5758balak200,000
519/08 17:09SET4N088balak200,000
LATEST JACKPOT
No.TanggalNamaPriceWin
119/08 17:11WAYOIIK4murni besar50,000
219/08 17:11KAREP09murni besar50,000
319/08 17:11WAYOIIK4murni besar50,000
419/08 17:11PALUSAImurni besar50,000
519/08 17:11ROZI1996murni besar25,000
619/08 17:10JOKKULITmurni kecil50,000
719/08 17:10RAMLANZRmurni kecil50,000
819/08 17:10API01balak200,000
919/08 17:10JERUK7777balak100,000
1019/08 17:10CIPLIN9murni besar50,000
1119/08 17:10BAPER10balak100,000
1219/08 17:10DANGDER97murni besar50,000
1319/08 17:10WAYOIIK4murni besar50,000
1419/08 17:10NASRI02murni besar50,000
1519/08 17:10GEMBUL989murni besar50,000
1619/08 17:10ANA_ARUSmurni besar50,000
1719/08 17:10NRP543murni besar50,000
1819/08 17:09PUT5758balak200,000
1919/08 17:09ETOT11murni kecil50,000
2019/08 17:09FAHTIR45murni kecil50,000
2119/08 17:09SET4N088balak200,000
2219/08 17:09AMIABLEHmurni kecil25,000
2319/08 17:09MILYALDER9murni besar25,000
2419/08 17:09JERI3210murni besar25,000
2519/08 17:09KUDAKUD77murni kecil50,000
2619/08 17:09WIRRO06murni kecil25,000
2719/08 17:09HINDAHRUNmurni besar5,000
2819/08 17:09MELYONmurni kecil50,000
2919/08 17:09THXNSMNA96murni kecil5,000
3019/08 17:09MELYONmurni kecil50,000
3119/08 17:09SRTLPEPSImurni kecil25,000
3219/08 17:09IBP89615balak20,000
3319/08 17:09ANINUmurni kecil25,000
3419/08 17:09IBI76balak200,000
3519/08 17:08MAYZADAmurni kecil50,000
3619/08 17:08EDA8B4ACbalak200,000
3719/08 17:08ZETTZmurni besar50,000
3819/08 17:08TOLK0N93murni besar25,000
3919/08 17:08SONDRA12murni kecil50,000
4019/08 17:08REZASIR123murni kecil5,000
4119/08 17:08CANON64murni besar50,000
4219/08 17:08ASHIDAmurni besar50,000
4319/08 17:08GONDOL113murni besar50,000
4419/08 17:08ASHIDAmurni besar50,000
4519/08 17:08IH7HE20HS5murni kecil50,000
4619/08 17:08PASPORBC4murni kecil50,000
4719/08 17:08LINGMINbalak200,000
4819/08 17:08SET4N088balak200,000
4919/08 17:08FAHR111balak100,000
5019/08 17:08ENOKS123balak100,000